GW3344 Weather Reports


Display with metric or nautical units.
time (UTC)temp
F
wind
direction
speed
MPH
gust
MPH
rain 1hr
in
rain 24hr
in
rain mn
in
humidity
%
barometer
mb
20260505065019 60 216 3.0 12.0 0.00 0.00 0.00 78 1004.2
20260505064020 61 254 3.0 4.0 0.00 0.00 0.00 74 1004.3
20260505063021 62 252 7.0 15.0 0.00 0.00 0.00 69 1004.4
20260505062037 63 247 6.0 15.0 0.00 0.00 0.00 67 1004.2
20260505061120 63 228 2.0 5.0 0.00 0.00 0.00 65 1004.3
20260505060120 64 255 5.0 10.0 0.00 0.00 0.00 65 1004.1
20260505054218 64 233 6.0 11.0 0.00 0.00 0.00 65 1004.1
20260505053220 64 239 6.0 14.0 0.00 0.00 0.00 65 1004.1
20260505052220 64 257 6.0 11.0 0.00 0.00 0.00 66 1004.1
20260505051220 64 246 9.0 15.0 0.00 0.00 0.00 65 1004.1
20260505050220 63 268 4.0 10.0 0.00 0.00 0.00 64 1004.1
20260505041321 61 231 0.0 0.0 0.00 0.00 0.00 66 1004.1
20260505035509 61 135 0.0 1.0 0.00 0.00 0.00 65 1004.1
20260505033510 62 176 1.0 3.0 0.00 0.00 0.00 60 1004.6
20260505032610 62 261 1.0 3.0 0.00 0.00 0.00 58 1004.6
20260505030712 62 195 0.0 1.0 0.00 0.00 0.00 57 1005.0
20260505025809 61 221 2.0 7.0 0.00 0.00 0.00 56 1004.8
20260505023910 59 135 0.0 0.0 0.00 0.00 0.00 62 1004.6
20260505022909 58 270 0.0 0.0 0.00 0.00 0.00 63 1004.6
20260505020908 58 135 0.0 0.0 0.00 0.00 0.00 64 1004.8
20260505014910 58 154 0.0 0.0 0.00 0.00 0.00 66 1004.8
20260505014809 58 157 0.0 0.0 0.00 0.00 0.00 66 1004.8
20260505013808 57 157 0.0 0.0 0.00 0.00 0.00 68 1004.9
20260505012810 58 157 0.0 0.0 0.00 0.00 0.00 70 1005.0
20260505011908 58 157 0.0 0.0 0.00 0.00 0.00 68 1004.9
20260505005910 59 180 0.0 0.0 0.00 0.00 0.00 65 1004.9
20260505004910 60 180 0.0 0.0 0.00 0.00 0.00 62 1004.9
20260505003910 61 202 0.0 0.0 0.00 0.00 0.00 60 1004.9
20260505003008 63 202 0.0 0.0 0.00 0.00 0.00 56 1004.8
20260505002009 65 202 0.0 0.0 0.00 0.00 0.00 49 1004.7
20260505001024 66 202 0.0 1.0 0.00 0.00 0.00 46 1004.7
20260505000110 67 266 3.0 4.0 0.00 0.00 0.00 43 1004.9
20260504234109 69 228 3.0 6.0 0.00 0.00 0.00 39 1004.9
20260504233110 69 244 4.0 7.0 0.00 0.00 0.00 38 1004.9
20260504232108 70 249 3.0 6.0 0.00 0.01 0.00 37 1004.8
20260504231208 70 235 5.0 8.0 0.00 0.01 0.00 38 1004.8
20260504230307 70 255 2.0 6.0 0.00 0.01 0.00 36 1004.7
20260504225311 70 256 6.0 11.0 0.00 0.01 0.00 35 1004.7
20260504224409 71 267 5.0 8.0 0.00 0.01 0.00 36 1004.7
20260504222410 71 261 11.0 16.0 0.00 0.01 0.00 35 1004.8
20260504221410 72 256 6.0 11.0 0.00 0.01 0.00 36 1004.7
20260504220412 72 252 6.0 11.0 0.00 0.01 0.00 36 1004.8
20260504215508 72 255 8.0 13.0 0.00 0.01 0.00 35 1004.6
20260504213608 72 244 4.0 11.0 0.00 0.01 0.00 36 1004.7
20260504211708 73 241 6.0 19.0 0.00 0.01 0.00 35 1004.7
20260504205710 73 243 11.0 19.0 0.00 0.01 0.00 37 1004.8
20260504204807 73 254 6.0 11.0 0.00 0.01 0.00 37 1004.8
20260504202809 72 250 7.0 10.0 0.00 0.01 0.00 39 1004.9
20260504201908 72 252 7.0 10.0 0.00 0.01 0.00 41 1005.1
20260504200909 72 235 6.0 11.0 0.00 0.01 0.00 40 1005.2
20260504195910 72 250 6.0 14.0 0.00 0.01 0.00 40 1005.3
20260504195009 72 267 5.0 10.0 0.00 0.01 0.00 40 1005.5
20260504194109 72 260 9.0 16.0 0.00 0.01 0.00 41 1005.7
20260504193108 71 233 11.0 19.0 0.00 0.01 0.00 42 1005.9
20260504193009 71 261 7.0 14.0 0.00 0.01 0.00 42 1005.9
20260504192107 71 253 10.0 17.0 0.00 0.01 0.00 44 1005.9
20260504191110 71 227 13.0 20.0 0.00 0.01 0.00 43 1006.2
20260504190110 71 241 11.0 18.0 0.00 0.01 0.00 45 1006.4
20260504185208 70 241 8.0 14.0 0.00 0.01 0.00 44 1006.2
20260504185107 70 240 12.0 22.0 0.00 0.01 0.00 45 1006.2
20260504184110 70 228 4.0 16.0 0.00 0.01 0.00 46 1006.4
20260504183110 70 258 9.0 17.0 0.00 0.01 0.00 48 1006.7
20260504182108 69 249 9.0 16.0 0.00 0.01 0.00 47 1006.7
20260504181107 69 252 8.0 15.0 0.00 0.01 0.00 48 1006.7
20260504180110 68 233 7.0 13.0 0.00 0.01 0.00 49 1007.0
20260504175109 68 250 7.0 14.0 0.00 0.01 0.00 48 1007.1
20260504174108 68 223 4.0 9.0 0.00 0.01 0.00 50 1007.3
20260504173207 67 256 11.0 20.0 0.00 0.01 0.00 49 1007.3
20260504172208 67 253 4.0 9.0 0.00 0.01 0.00 48 1007.4
20260504171207 66 252 11.0 17.0 0.00 0.01 0.00 50 1007.4
20260504170307 66 258 8.0 16.0 0.00 0.01 0.00 50 1007.5
20260504160207 64 250 11.0 18.0 0.00 0.01 0.00 50 1007.8
20260504150308 63 251 11.0 20.0 0.00 0.01 0.00 50 1008.4
20260504141209 62 249 10.0 14.0 0.00 0.01 0.00 50 1008.3
20260504140209 61 261 10.0 16.0 0.00 0.01 0.00 51 1008.2
20260504130417 59 272 7.0 9.0 0.00 0.01 0.00 53 1008.7
20260504081309 50 254 1.0 3.0 0.00 0.01 0.00 66 1009.4
20260504081208 50 233 0.0 4.0 0.00 0.01 0.00 66 1009.3
20260504080209 50 240 2.0 5.0 0.00 0.01 0.00 68 1009.4
20260504070208 52 250 6.0 8.0 0.00 0.01 0.00 64 1010.0